Regional Weather Roundup
Issued by NWS

Home | Current Version | Previous Version | Text Only | Print | Product List | Glossary Off
Versions: 1 2 3 4 5 6 7 8 9 10 11 12 13 14 15 16 17 18 19 20 21 22 23 24 25 26 27 28 29 30 31 32 33 34 35 36 37 38 39 40 41 42 43 44 45 46 47 48 49 50

000
ASUS43 KLOT 292003
RWRIL

ILLINOIS REGIONAL WEATHER ROUNDUP
NATIONAL WEATHER SERVICE CHICAGO/ROMEOVILLE IL
300 PM CDT SUN MAY 29 2016

NOTE: "FAIR" INDICATES FEW OR NO CLOUDS BELOW 12,000 FEET WITH NO
SIGNIFICANT WEATHER AND/OR OBSTRUCTIONS TO VISIBILITY.

* THESE STATIONS ARE NOT UNDER NWS QUALITY CONTROL. THEY ALSO MAY NOT
  REPORT WEATHER SUCH AS PRECIPITATION OR FOG.

ILZ001-002-007-009-015-016-024-292100-
NORTHWEST ILLINOIS

CITY           SKY/WX    TMP DP  RH WIND       PRES   REMARKS
MOLINE         MOSUNNY   82  58  43 W13       30.03F HX  82
STERLING*      MOSUNNY   79  60  52 W15       30.02F HX  80
$$

ILZ003-004-008-010-011-017-018-292100-
NORTH CENTRAL ILLINOIS

CITY           SKY/WX    TMP DP  RH WIND       PRES   REMARKS
ROCKFORD       MOSUNNY   79  58  48 W18G25    30.02F HX  80
FREEPORT*      PTSUNNY   76  59  55 W13G22    30.03F
ROCHELLE*      PTSUNNY   76  60  57 W14G25    30.02F
$$

ILZ005-006-012>014-019>023-292100-
NORTHEAST ILLINOIS

CITY           SKY/WX    TMP DP  RH WIND       PRES   REMARKS
CHICAGO-OHARE  MOSUNNY   78  60  53 W14G21    30.00F
CHICAGO-MIDWAY MOSUNNY   79  59  50 W15       30.00F HX  80
AURORA         PTSUNNY   78  63  59 W13       30.02F HX  80
LANSING*       MOSUNNY   80  58  45 W14       30.02S HX  81
WAUKEGAN       MOSUNNY   78  60  53 SW13G18   29.97F
DUPAGE AIRPORT MOSUNNY   78  60  53 W12G20    30.01F
WHEELING       MOSUNNY   79  58  48 W13G20    30.00F HX  80
NORTHERLY ISL    N/A     77  55  46 W13         N/A
NORTHERLY ISL    N/A     77  55  46 W13         N/A
$$

LMZ740>746-292100-
SOUTHERN LAKE MICHIGAN

STATION/POSITION SKY/WX   TEMP    WIND        PRES    VSBY  WAVE
                          AIR SEA DIR/SP/G                  HT/PER
                          (F)     (DEG/KT/KT) (MB)    (MI)  (FT/S)
SOUTHERN BUOY              57 51  230/ 12/ 12 1015.2          1/ 3
WILMETTE HARBOR            65 54  280/  8/ 12   N/A           1/ 2
HARRISON CRIB              74     260/ 17/ 20   N/A
BURNHAM HARBOR             77     280/ 10/ 15   N/A
CALUMET HARBOR             78     240/ 11/ 20 1015.7S
BURNS HARBOR               68     280/ 13/ 24 1016.6S
MICHIGAN CITY              63     210/  7/  8   N/A
MICHIGAN CITY 6N           62 58  280/  8/ 10   N/A           1/ 3
ST. JOSEPH                 63 61  280/ 10/ 12   N/A           1
$$

ILZ025>027-034>036-040-047-049-050-058-095>099-292100-
WEST-CENTRAL ILLINOIS

CITY           SKY/WX    TMP DP  RH WIND       PRES   REMARKS
QUINCY         MOSUNNY   82  60  47 W10       30.08F HX  82
MACOMB*        MOSUNNY   81  56  42 W13G20    30.09S HX  81
PITTSFIELD*    MOSUNNY   83  61  47 W9G18     30.09F HX  83
$$

ILZ028>032-037-038-041>044-048-051>054-059>061-292100-
CENTRAL ILLINOIS

CITY           SKY/WX    TMP DP  RH WIND       PRES   REMARKS
BLOOMINGTON    MOSUNNY   81  62  52 W10       30.07F HX  82
DECATUR        SUNNY     84  55  36 W13G22    30.06S HX  83
PEORIA         MOSUNNY   82  55  39 NW8       30.05F HX  81
SPRINGFIELD    MOSUNNY   85  54  34 NW14      30.07S HX  83
TAYLORVILLE    NOT AVBL
$$

ILZ033-039-045-046-055>057-062-063-292100-
EAST-CENTRAL ILLINOIS

CITY           SKY/WX    TMP DP  RH WIND       PRES   REMARKS
CHAMPAIGN      MOSUNNY   86  53  32 SW16G26   30.05F HX  84
MATTOON        MOSUNNY   83  59  44 W10G16    30.06S HX  83
$$

ILZ079-100>102-292100-
SOUTHWEST ILLINOIS

CITY           SKY/WX    TMP DP  RH WIND       PRES   REMARKS
ALTON          MOSUNNY   82  57  42 W12       30.09F HX  82
BELLEVILLE     PTSUNNY   84  59  41 NW10      30.07F HX  84
CAHOKIA*       CLOUDY    86  53  32 VRB5      30.08F HX  84
SPARTA*        MOSUNNY   83  60  46 CALM      30.10F HX  83
$$

ILZ064>066-069>071-074>076-080>082-084>086-088>090-092>094-292100-
SOUTH-CENTRAL ILLINOIS

CITY           SKY/WX    TMP DP  RH WIND       PRES   REMARKS
CARBONDALE     PTSUNNY   85  62  46 NW9       30.08F HX  85
EFFINGHAM*     MOSUNNY   82  61  49 W5        30.09S HX  82
MARION         PTSUNNY   86  63  45 NW9       30.09S HX  87
MT. VERNON     MOSUNNY   84  61  45 W6        30.08F HX  84
SALEM*         MOSUNNY   85  60  42 SW7       30.08F HX  84
$$

ILZ067-068-072-073-078-083-087-091-292100-
SOUTHEAST ILLINOIS

CITY           SKY/WX    TMP DP  RH WIND       PRES   REMARKS
LAWRENCEVILLE  MOSUNNY   87  63  44 W14       30.05F HX  88
FLORA*         MOSUNNY   86  62  44 W8G21     30.07S HX  86
HARRISBURG*    MOSUNNY   84  67  56 W8        30.07S HX  87
ROBINSON*      MOSUNNY   82  64  54 NW8       30.06F HX  84
$$

ABBREVIATIONS USED IN REMARKS
   TC - TEMPERATURE IN CELSIUS
  WCI - WIND CHILL INDEX
   HX - HEAT INDEX
  VSB - VISIBILITY
$$





USA.gov is the U.S. government's official web portal to all federal, state and local government web resources and services.